User: anonymous   Login
Location: Hamburg
(53.5500°N, 10.0000°E)
Time: 22:36:40
(UTC+02:00)
Language:

Iridium 10 - Orbit

View from above orbital plane
View from above orbital plane
View from above satellite
View from above satellite

Ground track
Ground track

The orbit data is extracted from the following two-line orbital elements,

1 24839U 97030D   17088.90692392 +.00000223 +00000-0 +72520-4 0  9996
2 24839 086.4001 023.2098 0002258 083.3754 341.9758 14.34221886035574
Epoch (UTC): 29 March 2017 21:45:58
Eccentricity: 0.0002258
inclination: 86.4001°
perigee height: 776 km
apogee height: 779 km
right ascension of ascending node: 23.2098°
argument of perigee: 83.3754°
revolutions per day: 14.34221886
mean anomaly at epoch: 341.9758°
orbit number at epoch: 3557

The dashed part of the orbit path shows where the satellite is in the earth's shadow,  

DLR